Temp
64 65 64 62 63 62 61 61 62 60 59 59 58 56 55 53 52 51 50 50 48 46
62 64 61 60 59 62 61 60 60 58 57 57 55 54 52 52 51 49 48 48 48 48
59 60 62 60 58 59 59 59 56 56 56 54 54 52 51 51 49 48 45 43 43 45
55 57 59 59 58 57 56 56 54 55 54 53 52 52 49 46 47 46 44 42 42 41
53 55 55 54 55 55 54 53 53 52 51 51 50 50 49 46 46 43 41 40 39 37
52 52 51 52 52 53 53 52 51 51 50 49 48 48 47 45 43 41 39 38 38 37
49 51 52 51 51 51 52 50 49 50 48 46 45 44 42 41 39 38 38 38 37 37
48 49 48 48 47 47 46 45 45 44 43 42 42 41 39 38 37 35 34 34 33 32
45 44 43 42 42 42 42 42 42 41 41 40 41 43 41 38 35 34 32 32 32 32
42 41 40 41 40 39 39 39 39 39 39 39 40 42 40 39 34 33 32 32 33 33
39 38 39 38 37 37 38 38 38 38 38 38 39 41 40 37 33 32 32 32 32 32
38 36 35 34 34 35 34 33 33 33 33 33 34 37 35 33 31 31 31 33 35 35
35 35 34 34 33 33 33 32 32 32 33 36 34 37 36 35 36 32 33 34 34 35
35 33 33 32 33 32 32 31 29 29 30 32 35 36 39 38 35 34 33 33 34 35
MSLP
1009.78 1009.84 1009.93 1010.16 1010.09 1010.14 1010.39 1010.74 1011.27 1011.62 1012.01 1012.58 1013.42 1014.07 1014.80 1015.69 1016.54 1017.20 1017.88 1018.51 1019.03 1019.58
1009.54 1009.38 1009.52 1009.80 1010.09 1009.99 1010.06 1010.28 1010.65 1011.29 1011.90 1012.38 1012.92 1013.56 1014.36 1015.11 1015.93 1016.71 1017.51 1018.25 1018.91 1019.24
1009.54 1009.40 1009.34 1009.57 1009.65 1009.67 1009.79 1010.12 1010.58 1011.00 1011.63 1012.36 1013.12 1013.77 1014.21 1014.90 1015.49 1016.34 1017.47 1018.07 1018.92 1019.76
1009.82 1009.33 1009.11 1009.07 1009.20 1009.41 1009.79 1010.09 1010.44 1010.91 1011.53 1012.29 1012.98 1013.63 1014.38 1014.93 1014.87 1016.16 1017.53 1018.45 1018.88 1019.80
1010.06 1009.41 1009.03 1009.07 1009.29 1009.49 1009.50 1009.87 1010.40 1010.90 1011.50 1012.23 1013.06 1013.67 1014.25 1014.99 1015.71 1016.36 1017.52 1018.74 1019.75 1020.26
1009.60 1009.43 1009.38 1009.23 1009.37 1009.69 1009.97 1010.18 1010.54 1011.11 1011.67 1012.26 1013.07 1014.07 1014.98 1015.76 1016.86 1017.62 1018.24 1019.07 1020.32 1020.27
1009.64 1009.10 1009.38 1009.55 1009.57 1009.95 1010.32 1010.60 1010.96 1011.37 1012.09 1012.73 1013.51 1014.27 1015.13 1016.08 1017.24 1018.39 1019.34 1020.25 1020.64 1021.28
1010.04 1009.66 1009.85 1010.20 1010.25 1010.62 1011.22 1011.70 1012.13 1012.42 1012.96 1013.46 1013.98 1014.93 1015.48 1016.39 1017.42 1018.65 1019.44 1020.36 1021.56 1021.14
1011.42 1010.94 1011.21 1011.25 1011.44 1011.62 1012.26 1012.67 1013.08 1013.68 1013.98 1014.42 1014.71 1015.43 1016.42 1017.15 1017.94 1019.05 1019.62 1020.06 1021.39 1021.71
1012.46 1012.31 1012.59 1012.60 1012.63 1013.03 1013.45 1013.63 1014.14 1014.64 1015.04 1015.52 1016.09 1016.33 1016.97 1018.11 1018.75 1019.44 1020.03 1020.67 1021.26 1021.83
1013.51 1013.45 1013.69 1013.84 1013.91 1014.18 1014.35 1014.70 1015.14 1015.53 1016.03 1016.57 1016.99 1017.57 1018.17 1018.72 1019.35 1020.05 1020.63 1021.10 1021.71 1021.56
1014.71 1014.82 1015.09 1015.18 1015.20 1015.28 1015.42 1015.95 1016.51 1016.74 1017.65 1017.60 1017.92 1018.81 1019.13 1019.29 1019.49 1020.32 1021.12 1021.16 1021.24 1021.44
1015.79 1015.93 1016.09 1016.33 1016.59 1016.59 1016.66 1017.18 1017.63 1017.54 1018.39 1018.68 1018.90 1019.50 1019.55 1019.85 1019.95 1020.34 1020.52 1021.03 1021.37 1021.51
1016.93 1017.00 1017.23 1017.44 1017.57 1017.61 1017.93 1018.20 1018.71 1019.23 1019.57 1019.57 1019.73 1019.88 1019.77 1019.70 1019.98 1020.51 1020.86 1021.17 1021.22 1021.16
Wind_Speed
11 8 9 8 8 8 9 10 12 13 13 14 14 13 12 9 7 8 6 8 5 4
6 8 6 7 6 7 8 7 10 13 13 13 13 13 12 9 10 9 7 7 8 6
5 6 8 7 8 10 8 9 9 11 12 12 12 10 11 9 10 11 6 6 8 6
8 8 7 8 9 8 7 8 9 11 11 12 12 12 10 10 10 12 9 7 8 6
10 9 8 7 7 6 7 8 9 10 10 11 11 10 11 11 10 12 11 9 8 7
6 6 7 4 4 5 6 8 8 10 10 10 10 9 8 10 11 9 10 9 7 6
7 5 5 1 4 5 7 8 8 9 10 11 12 13 14 14 13 11 9 8 8 8
5 7 8 7 8 10 10 10 10 12 12 13 13 9 14 14 14 12 11 9 5 7
8 10 10 10 10 11 11 10 11 11 11 11 9 23 20 14 11 10 9 8 4 3
9 10 9 9 11 11 11 11 11 11 11 12 11 22 22 18 9 8 7 6 4 4
9 10 9 9 10 10 10 11 10 11 12 11 12 18 19 18 9 7 6 6 5 4
10 10 10 10 10 9 11 11 11 10 9 10 11 17 16 11 7 9 7 6 3 2
9 9 10 10 9 9 11 10 9 11 8 11 9 13 11 6 6 7 5 3 2 3
9 9 8 8 8 9 9 10 10 9 7 7 4 3 9 8 5 4 3 1 0 2
Wind_Direction
246 245 258 241 220 210 207 212 215 202 198 196 195 189 183 181 179 170 168 166 163 167
263 238 237 234 230 237 223 214 197 197 200 197 190 185 177 176 172 161 151 160 163 152
291 260 247 249 236 230 219 198 184 188 192 188 188 178 175 170 161 148 142 131 126 120
297 288 266 244 244 229 203 186 181 184 179 180 179 174 163 155 150 138 134 124 124 103
300 285 262 249 247 212 189 171 169 164 165 167 167 166 162 156 146 136 123 113 103 104
324 325 306 273 204 191 174 160 148 155 153 149 142 133 124 113 102 96 99 105 115 121
341 355 330 236 158 147 148 134 132 126 120 118 114 115 111 107 100 91 84 81 88 89
52 62 68 72 80 83 83 89 98 105 107 112 113 115 112 110 110 107 110 97 94 96
44 68 71 80 84 88 93 96 99 99 104 102 105 114 113 110 108 108 112 110 122 133
47 60 62 72 80 86 93 93 91 95 94 93 101 112 113 112 109 113 113 132 145 150
57 62 66 77 84 88 87 90 95 92 95 96 102 108 109 101 90 93 102 103 113 101
51 64 66 65 72 80 85 79 77 78 82 90 87 100 106 114 105 101 127 135 120 138
58 60 69 70 66 73 75 77 80 77 68 84 89 109 105 118 118 108 102 114 149 298
58 63 62 72 68 73 77 78 68 68 65 71 95 170 134 111 91 116 124 115 333 293